SCOUT B DEB, 3392

Orbit data source: Space-Track

SCOUT B DEB, 3392 is space debris in LEO originally from a launch on Thu, 08 Aug 1968 UTC launched from the Air Force Western Test Range (AFWTR). Debris objects in space refer to the collection of defunct objects orbiting the Earth. Examples of debris include non-operational satellites, rocket bodies, and fragments generated from explosions, collisions, or faulty payload assembly.

Loading next visibility...
Identifier
3392, 1968-066H
Orbit
LEO
Country
Flag of USUS
Related business
Manufacturer
Unknown
Mission
Spacecraft
Bus & Motor
Unknown
Mass
Unknown
Launch date (UTC)
1968-08-08 (57 years ago)
Launch vehicle
Unknown
Launch site
Air Force Western Test Range (AFWTR)
Object type
Payload
Rocket body
Debris
Shape & HBR
Unknown
Radar Cross Section
Small (<0.1 m²)

Expand to show TLE details & history
Last TLE update: 1 day ago

TLE from 1 day ago
0 SCOUT B DEB
1 03392U 68066H   25261.11383757  .00007498  00000-0  23787-2 0  9991
2 03392  80.6672 146.7630 0347914 242.5392 114.0007 14.10578884694895
Epoch: 2025-09-18T02:43Z
TLE epoch observation values (Epoch: 2025-09-18T02:43:55.566Z)
Latitude
-0.00002°
Longitude
108.50138°
Altitude
969.838 km
Speed
7.311 km/s
True Right ascension
09h 47m 03s
True Declination
0° 00' 00"
Sunlit
Object was in daylight at epoch
Visualization orbit readout
Latitude
Unknown
Longitude
Unknown
Altitude
Unknown
Speed
Unknown
Apparent Right ascension
Unknown
Apparent Declination
Unknown
Sunlit
N/A
Visualization observer readout
Local Sidereal Time
21:18:06
Azimuth
Unknown
Elevation
Unknown
Doppler factor
Unknown
Orbital elements
Apogee altitude
1,106.225 km
Perigee altitude
602.952 km
Semi-major axis
7,232.725 km
Eccentricity
0.03479
Inclination
80.6672°
RAAN
146.763°
Arg. of periapsis
242.5392°
True anomaly
117.57714°
Mean anomaly
114.0007°
Eccentric anomaly
115.79546°
Mean motion
3.5285 °/min
Orbital period
102.03 mins
BSTAR
0.0023787
Loading maneuver chart data...
Computing Atmospheric mass density...
Loading historical data...
Loading historical data...
Loading historical data...
Loading historical data...
Loading historical data...
Loading historical data...
Loading historical data...

Documentation

Showing up to 5 results
|